Weather reports worldwide

Advertisment
Gravesend, United Kingdom (3784): temperature & dewpoint: 11.08.2017 08:00:00 - 17.08.2017 08:00:00 (BST)Gravesend, United Kingdom (3784): wind speed: 11.08.2017 08:00:00 - 17.08.2017 08:00:00 (BST)Gravesend, United Kingdom (3784): wind direction: 11.08.2017 08:00:00 - 17.08.2017 08:00:00 (BST)Gravesend, United Kingdom (3784): reduced air pressure: 11.08.2017 08:00:00 - 17.08.2017 08:00:00 (BST)Gravesend, United Kingdom (3784): visibility: 11.08.2017 08:00:00 - 17.08.2017 08:00:00 (BST)
Date & Time tt [°C] td [°C] ff [km/h] ff [kn] dd ppp [hPa] vv [km]
17.08.2017 08:00:00 17,6 16,8 13 7 S 1010,2 -
17.08.2017 07:00:00 17,1 16,3 11 6 SSW 1010,5 -
17.08.2017 06:00:00 16,8 15,8 11 6 S 1010,7 -
17.08.2017 05:00:00 16,4 15,3 11 6 S 1011,1 -
17.08.2017 04:00:00 16,2 14,7 8 4 SSW 1011,9 -
17.08.2017 03:00:00 15,8 14,6 11 6 S 1012,6 -
17.08.2017 02:00:00 15,9 12,9 5 3 S 1013,9 -
17.08.2017 01:00:00 16,4 12,1 13 7 SE 1014,2 -
17.08.2017 00:00:00 15,7 11,7 9 5 SE 1015,1 -
16.08.2017 23:00:00 15,7 11,6 13 7 SSE 1015,7 -
16.08.2017 22:00:00 15,0 10,4 8 4 SE 1016,4 0,3
16.08.2017 21:00:00 16,9 10,5 11 6 S 1017,0 -
16.08.2017 20:00:00 17,8 10,4 11 6 S 1017,3 -
16.08.2017 19:00:00 19,6 9,7 18 10 S 1017,5 -
16.08.2017 18:00:00 20,9 10,3 16 9 SSW 1017,7 -
16.08.2017 17:00:00 22,4 11,2 18 10 SSW 1017,8 -
16.08.2017 16:00:00 22,4 10,2 18 10 SW 1018,3 -
16.08.2017 15:00:00 23,0 12,1 11 6 SW 1018,7 -
16.08.2017 14:00:00 21,7 9,3 16 9 SW 1019,0 -
16.08.2017 13:00:00 21,3 12,3 15 8 SSW 1019,3 -
16.08.2017 12:00:00 20,2 11,6 16 9 SSW 1020,0 -
16.08.2017 11:00:00 19,5 12,9 16 9 SSW 1020,3 -
16.08.2017 10:00:00 18,2 11,6 9 5 SSW 1020,4 -
16.08.2017 09:00:00 16,2 11,2 5 3 WSW 1020,2 -
16.08.2017 08:00:00 14,1 12,7 4 2 SSW 1020,2 -
16.08.2017 07:00:00 10,3 9,8 5 3 SSE 1019,9 -
16.08.2017 06:00:00 9,4 8,2 4 2 SE 1019,7 -
16.08.2017 05:00:00 10,4 7,6 5 3 S 1019,3 -
16.08.2017 04:00:00 13,9 9,9 11 6 WSW 1019,3 -
16.08.2017 03:00:00 14,3 10,0 11 6 WSW 1019,5 -
16.08.2017 02:00:00 14,9 9,8 13 7 WSW 1019,4 -
16.08.2017 01:00:00 15,1 10,1 9 5 WSW 1019,3 -
16.08.2017 00:00:00 15,8 9,9 9 5 SW 1019,2 -
15.08.2017 23:00:00 17,1 11,1 11 6 WSW 1018,8 -
15.08.2017 22:00:00 18,5 10,1 11 6 WSW 1018,3 -
15.08.2017 21:00:00 19,3 11,2 13 7 W 1017,5 -
15.08.2017 20:00:00 21,0 11,3 15 8 W 1016,5 -
15.08.2017 19:00:00 21,4 11,0 15 8 W 1015,6 -
15.08.2017 18:00:00 23,3 11,4 16 9 WSW 1015,3 -
15.08.2017 17:00:00 23,7 10,2 18 10 WSW 1015,4 -
15.08.2017 16:00:00 23,3 12,3 18 10 WSW 1015,3 -
15.08.2017 15:00:00 22,8 12,5 16 9 WSW 1015,0 -
15.08.2017 14:00:00 22,3 13,7 18 10 W 1014,9 -
15.08.2017 13:00:00 21,6 13,5 15 8 W 1014,4 -
15.08.2017 12:00:00 21,2 13,4 9 5 W 1014,1 -
15.08.2017 11:00:00 20,2 13,5 8 4 W 1014,2 -
15.08.2017 10:00:00 18,7 13,9 5 3 W 1014,0 -
15.08.2017 09:00:00 17,7 13,3 5 3 WSW 1013,7 -
15.08.2017 08:00:00 16,0 13,3 5 3 SW 1013,0 -
15.08.2017 07:00:00 14,8 12,5 4 2 SSW 1012,8 -
15.08.2017 06:00:00 15,1 12,6 4 2 SSE 1012,8 -
15.08.2017 05:00:00 16,4 13,2 11 6 W 1012,8 -
15.08.2017 04:00:00 14,3 12,1 2 1 ESE 1012,4 -
15.08.2017 03:00:00 16,3 13,2 5 3 WNW 1013,1 -
15.08.2017 02:00:00 14,8 12,2 0 0 N 1013,5 -
15.08.2017 01:00:00 15,2 12,8 8 4 SSE 1013,7 -
15.08.2017 00:00:00 14,9 12,2 9 5 SE 1014,0 -
14.08.2017 23:00:00 13,2 10,6 4 2 SE 1014,4 -
14.08.2017 22:00:00 15,8 10,8 4 2 SSE 1014,6 -
14.08.2017 21:00:00 17,8 11,6 5 3 S 1014,8 -
14.08.2017 20:00:00 20,3 10,8 11 6 SSE 1014,4 -
14.08.2017 19:00:00 21,0 11,0 8 4 S 1014,6 -
14.08.2017 18:00:00 22,3 10,7 13 7 S 1015,2 -
14.08.2017 17:00:00 23,1 10,4 15 8 S 1015,3 -
14.08.2017 16:00:00 24,6 10,6 15 8 S 1015,5 -
14.08.2017 15:00:00 24,1 10,2 15 8 S 1015,7 -
14.08.2017 14:00:00 23,9 11,4 11 6 SSE 1016,2 -
14.08.2017 13:00:00 23,7 13,3 9 5 S 1016,8 -
14.08.2017 12:00:00 22,5 11,6 11 6 SSE 1017,5 -
14.08.2017 11:00:00 21,9 12,8 11 6 S 1018,2 -
14.08.2017 10:00:00 19,5 11,3 8 4 SSW 1018,7 -
14.08.2017 09:00:00 18,3 11,5 5 3 ESE 1019,0 -
14.08.2017 08:00:00 16,1 12,1 5 3 ESE 1019,0 -
14.08.2017 07:00:00 13,0 11,5 5 3 S 1018,9 -
14.08.2017 06:00:00 11,8 10,7 4 2 SSE 1018,9 -
14.08.2017 05:00:00 11,1 9,8 4 2 SSE 1019,1 -
14.08.2017 04:00:00 12,5 10,3 4 2 SE 1019,5 -
14.08.2017 03:00:00 13,0 12,0 9 5 ENE 1019,9 -
14.08.2017 02:00:00 10,4 9,3 4 2 WSW 1020,3 -
14.08.2017 01:00:00 10,5 8,7 4 2 SSE 1020,6 -
14.08.2017 00:00:00 11,2 8,8 4 2 SSE 1020,7 -
13.08.2017 23:00:00 13,3 10,0 9 5 SSE 1020,9 -
13.08.2017 22:00:00 13,7 9,7 9 5 SE 1020,9 0,3
13.08.2017 21:00:00 14,7 9,3 5 3 SSE 1020,7 -
13.08.2017 20:00:00 16,9 8,9 8 4 ESE 1020,4 -
13.08.2017 19:00:00 19,6 10,2 0 0 N 1020,2 -
13.08.2017 18:00:00 20,5 8,0 5 3 SSE 1020,3 -
13.08.2017 17:00:00 22,0 6,1 4 2 S 1020,5 -
13.08.2017 16:00:00 21,9 5,7 4 2 WNW 1020,9 -
13.08.2017 15:00:00 21,7 8,5 9 5 WNW 1021,2 -
13.08.2017 14:00:00 20,8 6,8 13 7 NNW 1021,2 -
13.08.2017 13:00:00 20,2 6,4 8 4 WNW 1021,5 -
13.08.2017 12:00:00 19,9 7,5 13 7 WNW 1021,7 -
13.08.2017 11:00:00 18,8 8,6 11 6 W 1021,7 -
13.08.2017 10:00:00 17,6 9,5 9 5 WNW 1021,6 0,3
13.08.2017 09:00:00 16,0 10,1 11 6 NW 1021,2 -
13.08.2017 08:00:00 14,3 9,6 9 5 WNW 1020,9 -
13.08.2017 07:00:00 13,5 8,9 11 6 W 1020,5 -
13.08.2017 06:00:00 13,5 9,2 9 5 WNW 1020,1 -
13.08.2017 05:00:00 14,5 9,3 11 6 WNW 1019,8 -
13.08.2017 04:00:00 15,1 9,9 9 5 WNW 1019,7 -
13.08.2017 03:00:00 15,3 10,4 11 6 WNW 1019,4 -
13.08.2017 02:00:00 16,0 10,2 11 6 WNW 1019,1 -
13.08.2017 01:00:00 16,6 10,5 11 6 WNW 1018,9 -
13.08.2017 00:00:00 17,7 11,1 13 7 NW 1018,4 -
12.08.2017 23:00:00 18,7 11,3 11 6 WNW 1017,9 -
12.08.2017 22:00:00 17,9 11,8 11 6 WSW 1017,6 0,3
12.08.2017 21:00:00 19,0 11,3 11 6 SW 1017,0 -
12.08.2017 20:00:00 19,5 11,1 9 5 WSW 1016,5 -
12.08.2017 19:00:00 20,4 10,3 16 9 W 1016,1 -
12.08.2017 18:00:00 21,1 11,1 15 8 W 1016,0 -
12.08.2017 17:00:00 21,7 11,4 16 9 W 1015,8 -
12.08.2017 16:00:00 20,4 11,1 18 10 WNW 1015,7 -
12.08.2017 15:00:00 20,7 12,3 21 11 W 1015,2 -
12.08.2017 14:00:00 21,5 13,1 21 11 W 1014,9 -
12.08.2017 13:00:00 21,1 13,6 22 12 W 1014,8 -
12.08.2017 12:00:00 20,2 13,1 22 12 W 1014,7 -
12.08.2017 11:00:00 19,8 14,2 21 11 W 1014,4 -
12.08.2017 10:00:00 19,2 14,9 16 9 W 1014,4 0,3
12.08.2017 09:00:00 18,9 15,8 16 9 WSW 1014,3 -
12.08.2017 08:00:00 17,7 15,6 16 9 WSW 1014,2 -
12.08.2017 07:00:00 17,0 15,7 16 9 WSW 1013,9 -
12.08.2017 06:00:00 17,0 15,7 15 8 WSW 1013,6 -
12.08.2017 05:00:00 17,0 15,7 15 8 WSW 1013,7 -
12.08.2017 04:00:00 17,5 15,4 18 10 WSW 1013,7 -
12.08.2017 03:00:00 17,3 15,0 16 9 WSW 1014,0 -
12.08.2017 02:00:00 17,1 14,7 15 8 SW 1014,3 -
12.08.2017 01:00:00 16,8 14,5 13 7 SW 1014,7 -
12.08.2017 00:00:00 16,6 14,1 13 7 SW 1015,3 -
11.08.2017 23:00:00 16,2 14,1 13 7 SW 1016,0 -
11.08.2017 22:00:00 16,9 13,3 15 8 SW 1016,3 0,3
11.08.2017 21:00:00 17,7 12,6 15 8 SW 1016,5 -
11.08.2017 20:00:00 18,5 12,7 24 13 WSW 1016,3 -
11.08.2017 19:00:00 18,9 12,6 26 14 W 1016,2 -
11.08.2017 18:00:00 19,8 12,3 24 13 W 1016,3 -
11.08.2017 17:00:00 20,9 11,1 24 13 WSW 1016,7 -
11.08.2017 16:00:00 21,6 11,1 18 10 SW 1017,2 -
11.08.2017 15:00:00 20,9 10,4 16 9 SW 1017,5 -
11.08.2017 14:00:00 21,5 11,1 18 10 WSW 1017,8 -
11.08.2017 13:00:00 20,5 12,0 13 7 WSW 1018,3 -
11.08.2017 12:00:00 20,5 11,2 16 9 WSW 1018,7 -
11.08.2017 11:00:00 19,8 11,8 16 9 W 1019,0 -
11.08.2017 10:00:00 18,9 13,8 11 6 W 1019,2 -
11.08.2017 09:00:00 16,4 12,9 9 5 WSW 1019,4 -
11.08.2017 08:00:00 14,0 12,2 9 5 W 1019,8 -

tt = temperature
td = dewpoint
ff = wind speed
dd = wind direction
ppp = reduced air pressure
vv = visibility

Next stations